This is the latest recevied weather packets stored in our database for station/object IU5JAE-13. If no packets are shown the sender has not sent any weather packets the latest 10 day(s).
| Time | Temp. | Humidity | Pressure | Rain* | Wind** | Luminosity | Snow |
|---|---|---|---|---|---|---|---|
| 1777749332 | 15.56° C | 55% | 1021.5 hPa | 0 mm | - | 0 W/m² | - |
| 1777748730 | 16.11° C | 53% | 1021.4 hPa | 0 mm | - | 0 W/m² | - |
| 1777748127 | 16.11° C | 52% | 1021.3 hPa | 0 mm | - | 0 W/m² | - |
| 1777747525 | 16.11° C | 52% | 1021.2 hPa | 0 mm | - | 0 W/m² | - |
| 1777746923 | 16.67° C | 51% | 1021.1 hPa | 0 mm | - | 0 W/m² | - |
| 1777746320 | 16.67° C | 51% | 1021 hPa | 0 mm | - | 1 W/m² | - |
| 1777745718 | 16.67° C | 51% | 1021 hPa | 0 mm | - | 3 W/m² | - |
| 1777745115 | 16.67° C | 51% | 1021 hPa | 0 mm | - | 6 W/m² | - |
| 1777744533 | 16.67° C | 50% | 1021 hPa | 0 mm | - | 9 W/m² | - |
| 1777743931 | 16.67° C | 49% | 1021 hPa | 0 mm | - | 12 W/m² | - |
| 1777743328 | 16.67° C | 49% | 1021.1 hPa | 0 mm | - | 15 W/m² | - |
| 1777742726 | 16.67° C | 52% | 1021.1 hPa | 0 mm | - | 19 W/m² | - |
| 1777742123 | 17.22° C | 50% | 1021 hPa | 0 mm | - | 24 W/m² | - |
| 1777741521 | 17.78° C | 49% | 1021.1 hPa | 0 mm | - | 27 W/m² | - |
| 1777740919 | 17.78° C | 47% | 1021.2 hPa | 0 mm | - | 30 W/m² | - |
| 1777740316 | 18.33° C | 46% | 1021.1 hPa | 0 mm | - | 33 W/m² | - |
| 1777739734 | 18.33° C | 47% | 1021.2 hPa | 0 mm | - | 34 W/m² | - |
| 1777739132 | 18.89° C | 45% | 1021.3 hPa | 0 mm | - | 36 W/m² | - |
| 1777738529 | 19.44° C | 43% | 1021.3 hPa | 0 mm | - | 106 W/m² | - |
| 1777737927 | 20° C | 42% | 1021.3 hPa | 0 mm | - | 173 W/m² | - |
| 1777737324 | 20° C | 42% | 1021.4 hPa | 0 mm | - | 191 W/m² | - |
| 1777736722 | 20.56° C | 41% | 1021.4 hPa | 0 mm | - | 210 W/m² | - |
| 1777736120 | 20° C | 42% | 1021.6 hPa | 0 mm | - | 232 W/m² | - |
| 1777735517 | 20° C | 41% | 1021.6 hPa | 0 mm | - | 254 W/m² | - |
| 1777734935 | 20° C | 42% | 1021.7 hPa | 0 mm | - | 283 W/m² | - |
* Rain latest hour (hover to see other rain measurements)
** Current wind speed in m/s (hover to see current wind gust speed)